LEMD Weather Reports


time (UTC)temp
C
wind
direction
speed
KPH
gust
KPH
rain 1hr
cm
rain 24hr
cm
rain mn
cm
humidity
%
barometer
mb
20260508054504 7 0 1.6 0.0 0.00 0.00 0.00 100 1012.0
20260508053004 7 0 1.6 0.0 0.00 0.00 0.00 100 1012.0
20260508051504 7 0 1.6 0.0 0.00 0.00 0.00 100 1012.0
20260508044504 7 340 3.2 0.0 0.00 0.00 0.00 100 1011.0
20260508043004 7 350 8.0 0.0 0.00 0.00 0.00 100 1011.0
20260508041504 7 350 8.0 0.0 0.00 0.00 0.00 100 1011.0
20260508030004 7 350 9.7 0.0 0.00 0.00 0.00 100 1012.0
20260508024504 7 350 9.7 0.0 0.00 0.00 0.00 100 1012.0
20260508023004 7 320 8.0 0.0 0.00 0.00 0.00 100 1012.0
20260508021503 7 320 8.0 0.0 0.00 0.00 0.00 100 1012.0
20260508011504 7 340 3.2 0.0 0.00 0.00 0.00 100 1013.0
20260508010005 7 350 8.0 0.0 0.00 0.00 0.00 100 1013.0
20260508004503 7 350 8.0 0.0 0.00 0.00 0.00 100 1013.0
20260508001504 8 350 8.0 0.0 0.00 0.00 0.00 100 1013.0
20260508000004 8 0 3.2 0.0 0.00 0.00 0.00 100 1013.0
20260507234503 8 0 3.2 0.0 0.00 0.00 0.00 100 1013.0
20260507233004 8 0 3.2 0.0 0.00 0.00 0.00 100 1013.0
20260507231503 8 0 3.2 0.0 0.00 0.00 0.00 100 1013.0
20260507230005 10 0 3.2 0.0 0.00 0.00 0.00 93 1013.0
20260507224504 10 0 3.2 0.0 0.00 0.00 0.00 93 1013.0
20260507223004 10 0 3.2 0.0 0.00 0.00 0.00 100 1013.0
20260507221504 10 0 3.2 0.0 0.00 0.00 0.00 100 1013.0
20260507220005 10 120 4.8 0.0 0.00 0.00 0.00 93 1013.0
20260507214504 10 120 4.8 0.0 0.00 0.00 0.00 93 1013.0
20260507204504 10 110 3.2 0.0 0.00 0.00 0.00 93 1012.0
20260507201504 11 0 1.6 0.0 0.00 0.00 0.00 87 1011.0
20260507194504 12 360 8.0 0.0 0.00 0.00 0.00 71 1011.0
20260507193004 13 360 4.8 0.0 0.00 0.00 0.00 67 1010.0
20260507190005 13 360 4.8 0.0 0.00 0.00 0.00 67 1010.0
20260507184504 13 360 4.8 0.0 0.00 0.00 0.00 67 1010.0
20260507181504 13 340 8.0 0.0 0.00 0.00 0.00 67 1011.0
20260507180005 12 0 3.2 0.0 0.00 0.00 0.00 82 1010.0
20260507174504 12 0 3.2 0.0 0.00 0.00 0.00 82 1010.0
20260507171504 11 90 8.0 0.0 0.00 0.00 0.00 93 1010.0
20260507164504 11 80 9.7 0.0 0.00 0.00 0.00 93 1010.0
20260507163004 11 10 9.7 0.0 0.00 0.00 0.00 87 1011.0
20260507161503 11 10 9.7 0.0 0.00 0.00 0.00 87 1011.0
20260507154504 12 260 9.7 0.0 0.00 0.00 0.00 76 1012.0
20260507151504 12 330 3.2 0.0 0.00 0.00 0.00 87 1012.0
20260507150009 11 110 8.0 0.0 0.00 0.00 0.00 87 1011.0
20260507144504 11 110 8.0 0.0 0.00 0.00 0.00 87 1011.0
20260507143005 12 100 14.5 0.0 0.00 0.00 0.00 76 1011.0
20260507130005 17 110 4.8 0.0 0.00 0.00 0.00 55 1010.0
20260507124504 17 110 4.8 0.0 0.00 0.00 0.00 55 1010.0
20260507123004 17 0 3.2 0.0 0.00 0.00 0.00 55 1010.0
20260507121504 17 0 3.2 0.0 0.00 0.00 0.00 55 1010.0
20260507120005 17 120 3.2 0.0 0.00 0.00 0.00 55 1011.0
20260507114504 17 340 4.8 0.0 0.00 0.00 0.00 59 1011.0
20260507111506 16 130 3.2 0.0 0.00 0.00 0.00 59 1011.0
20260507110005 16 350 4.8 0.0 0.00 0.00 0.00 59 1012.0
20260507104504 16 350 4.8 0.0 0.00 0.00 0.00 59 1012.0
20260507101505 15 20 3.2 0.0 0.00 0.00 0.00 62 1012.0
20260507094504 15 30 4.8 0.0 0.00 0.00 0.00 62 1012.0
20260507091504 12 0 1.6 0.0 0.00 0.00 0.00 71 1012.0
20260507084504 12 0 3.2 0.0 0.00 0.00 0.00 71 1012.0
20260507083004 12 0 3.2 0.0 0.00 0.00 0.00 71 1012.0
20260507081504 12 0 3.2 0.0 0.00 0.00 0.00 71 1012.0
20260507074504 12 90 4.8 0.0 0.00 0.00 0.00 66 1012.0
20260507073004 12 0 3.2 0.0 0.00 0.00 0.00 71 1011.0
20260507071503 12 0 3.2 0.0 0.00 0.00 0.00 71 1011.0
20260507063004 11 330 4.8 0.0 0.00 0.00 0.00 76 1011.0
20260507061504 11 330 4.8 0.0 0.00 0.00 0.00 76 1011.0
20260507060004 10 340 4.8 0.0 0.00 0.00 0.00 81 1011.0